Theta_e
313 314 315 317 316 313 312 313 316 317 317 315 315 315 316 317 317 315 314 313 310 312 315 313 312 312 312 313 313 313 313 315 315 315 315 315 313 311 311 313 316 319 320 319 320 322 323 324 326 327 328 328 329 329 330 330 330 331 331 331 332 332 333 333 333 332 332 331 331 331 331 331 330 331 331 331 333 333 334 334 334 334 333 333 332 332
313 315 316 317 316 313 312 313 313 315 316 316 316 316 316 316 317 315 312 313 312 311 315 315 312 312 312 311 312 312 312 313 313 313 313 313 312 310 309 310 311 313 313 313 315 316 320 323 324 325 327 327 328 328 329 329 330 330 331 331 331 331 332 332 333 333 332 332 332 331 331 330 331 330 330 330 331 331 332 333 334 334 335 334 333 333
314 316 317 316 316 315 312 312 312 313 315 317 318 317 317 316 315 315 313 313 312 310 316 317 312 311 311 310 310 310 310 311 311 311 311 312 311 310 310 310 309 309 309 310 311 310 313 318 321 324 325 326 327 328 328 328 329 329 330 330 330 331 331 331 332 332 332 332 332 331 331 330 330 330 330 330 329 330 330 330 331 333 334 334 334 333
317 317 316 316 316 315 313 312 312 313 314 316 317 318 318 315 315 318 317 314 311 310 314 315 312 312 311 310 310 309 309 310 310 310 310 311 312 312 312 311 310 309 309 309 309 307 307 312 317 321 323 324 325 326 327 328 328 328 329 329 330 330 330 330 331 331 332 332 331 332 331 331 330 330 330 329 329 329 329 329 330 330 331 332 333 334
319 316 315 316 316 315 314 312 312 313 313 314 316 317 317 314 313 317 316 313 312 312 310 311 313 312 312 312 311 311 310 309 310 310 310 310 311 311 311 311 311 310 310 309 310 308 305 306 312 315 319 322 323 325 326 326 327 327 328 328 328 329 329 329 330 330 331 331 331 331 331 331 330 330 330 330 330 330 330 330 330 330 329 329 331 332
318 315 314 316 315 314 314 312 312 313 313 314 315 317 318 317 314 314 315 313 314 316 313 312 314 317 318 315 312 312 312 311 311 311 310 309 309 309 309 310 310 310 310 309 310 309 306 304 307 310 314 318 321 322 323 325 326 326 327 327 327 328 328 328 328 329 330 330 330 330 330 331 330 330 330 330 330 330 330 330 330 329 329 328 329 331
317 314 314 315 314 316 316 313 314 314 313 315 315 315 318 318 315 314 314 313 316 319 315 311 313 319 320 316 314 314 312 311 311 311 310 309 307 308 309 309 309 309 309 309 309 308 306 304 304 306 309 313 316 318 320 322 323 324 326 326 327 327 327 327 327 328 329 329 330 330 329 330 330 330 330 330 330 330 330 330 330 329 329 329 329 330
315 313 314 314 314 315 316 315 314 312 315 317 315 314 315 314 313 314 313 313 318 319 314 312 312 313 314 314 316 315 313 312 311 311 311 310 309 308 308 308 308 308 309 309 309 309 307 304 303 305 307 310 312 314 317 319 321 323 324 325 326 326 326 327 327 327 328 328 329 329 329 329 329 329 329 330 329 330 330 330 330 330 329 329 329 329
313 313 314 314 314 315 315 315 313 312 316 317 312 313 315 315 315 314 312 313 317 315 312 314 313 312 315 315 315 314 313 313 313 313 314 314 313 311 308 308 308 308 308 308 309 309 307 304 304 305 306 307 309 311 314 316 317 320 322 324 325 326 326 326 326 327 327 328 328 328 329 329 329 329 329 329 329 329 330 330 330 330 329 329 329 329
311 313 313 313 315 314 314 315 312 312 316 312 310 315 318 321 321 316 314 313 315 315 314 317 316 313 317 317 314 313 312 312 313 313 314 315 316 314 310 309 309 308 308 309 309 307 305 304 305 305 305 305 307 308 310 312 315 318 321 323 324 325 326 326 326 327 327 327 328 328 328 328 328 329 329 329 330 330 330 330 330 330 329 329 329 329
309 311 312 313 315 313 312 313 312 315 316 312 314 318 317 323 323 320 322 317 313 316 315 318 319 314 316 317 314 313 313 312 312 312 312 313 316 315 313 311 309 308 308 309 308 305 301 302 303 304 304 305 305 306 308 310 313 316 319 321 323 324 325 326 326 326 327 327 327 327 328 328 328 329 329 329 329 330 330 330 330 330 330 329 329 329
308 310 312 313 313 311 311 312 312 314 314 314 320 319 315 321 318 316 323 318 314 318 315 314 316 314 316 317 314 313 314 312 312 312 313 312 314 315 315 313 309 309 309 310 312 309 303 302 302 302 303 304 304 304 306 308 311 314 318 320 322 323 324 325 326 326 326 327 327 327 327 328 328 328 328 329 329 329 329 329 330 330 330 330 330 330
310 311 312 310 310 311 312 313 312 311 312 315 320 318 315 318 315 314 318 316 316 316 311 310 312 311 314 317 316 315 314 313 312 312 313 313 314 315 316 316 314 314 316 320 323 320 315 309 302 300 301 302 303 304 304 306 309 313 317 319 321 323 324 324 325 326 326 326 327 327 327 327 328 328 328 328 329 329 329 329 329 329 330 330 330 330
314 314 312 310 310 311 313 314 312 311 313 314 315 316 316 316 316 316 316 316 319 316 308 308 311 312 313 315 317 315 313 314 313 311 311 311 312 312 311 313 317 318 319 321 320 321 325 315 302 299 301 301 302 303 304 305 308 312 316 319 320 321 323 324 325 325 326 326 326 327 327 327 328 328 328 328 329 329 329 329 329 329 330 330 330 329
319 318 314 312 312 313 313 313 311 311 312 314 316 317 316 316 320 321 319 317 319 316 309 308 312 317 318 315 314 313 312 313 313 312 312 312 312 310 308 308 313 315 314 314 315 322 326 311 301 301 302 301 303 303 303 304 306 310 314 318 320 321 322 323 325 325 326 326 326 327 327 327 327 328 328 329 329 329 329 329 329 329 330 330 330 330
320 319 313 311 311 311 312 312 311 311 312 313 316 317 315 317 322 321 317 315 316 316 312 310 314 319 318 315 311 310 313 315 314 313 314 315 313 309 310 311 311 310 309 310 315 326 325 305 300 304 304 304 305 304 304 304 305 308 311 315 318 320 322 322 323 325 325 326 326 327 327 327 328 328 328 328 328 329 329 329 330 330 330 330 330 330
321 317 311 311 309 309 313 313 310 312 314 312 313 315 314 317 321 318 312 309 311 316 315 312 314 315 314 315 313 311 314 315 314 313 312 313 312 310 315 316 312 309 308 308 312 323 325 309 302 305 306 307 308 306 307 306 305 307 308 312 316 318 320 321 323 324 324 326 326 326 327 327 327 328 328 328 328 329 329 329 329 330 330 330 330 330
320 316 311 312 311 309 312 314 310 312 314 312 313 313 312 315 319 319 316 312 312 316 317 314 313 313 314 318 318 314 313 313 313 313 311 311 312 312 315 315 312 310 308 309 313 319 317 306 303 307 308 308 309 308 309 308 307 307 307 309 312 315 318 320 321 323 324 325 326 326 327 327 327 327 328 328 328 329 329 329 329 329 329 330 330 330
319 318 312 311 312 310 310 312 311 310 310 312 314 314 314 316 317 316 317 316 314 314 318 317 313 311 312 315 317 314 313 315 313 313 313 311 312 314 316 315 312 310 311 312 315 320 317 306 304 309 309 309 310 310 310 310 309 309 309 309 310 312 315 317 320 322 323 324 325 325 326 326 327 327 327 328 328 328 329 329 329 329 329 330 329 329
316 321 316 310 311 311 309 311 313 311 309 311 313 312 313 315 315 315 314 316 317 315 317 321 317 314 313 314 314 312 314 316 315 314 315 313 313 315 317 317 315 314 318 318 317 322 323 309 303 307 309 310 312 312 311 311 310 310 310 310 311 311 313 316 319 320 322 323 324 325 326 326 326 327 327 327 328 328 328 328 329 329 329 329 329 328
312 319 318 312 310 311 311 311 312 312 310 310 311 311 311 311 313 316 313 313 318 318 318 319 317 319 321 317 313 312 312 313 314 314 314 313 313 316 319 319 316 315 319 321 317 321 323 309 301 306 308 310 313 313 313 312 311 310 310 309 310 311 312 314 316 319 321 322 323 324 325 325 326 326 326 326 327 327 328 328 329 329 329 328 328 328
313 315 317 314 311 312 313 310 310 312 311 311 311 311 311 311 312 315 314 312 316 318 318 317 314 318 323 316 311 313 312 310 313 312 311 314 316 318 321 319 315 312 315 319 319 322 321 309 302 305 306 308 312 313 313 313 312 311 310 309 310 310 311 312 313 316 319 321 323 323 323 324 324 324 325 326 326 327 328 328 328 328 328 328 327 326
315 315 314 313 313 315 313 308 308 313 313 311 312 312 312 312 311 313 315 314 312 312 315 316 314 314 317 314 312 315 312 313 318 315 312 316 318 319 320 317 315 312 313 316 317 318 314 305 303 306 305 306 309 311 311 311 312 312 311 310 310 309 310 311 313 314 317 319 321 322 322 323 323 324 325 325 326 326 327 328 327 327 327 327 326 325
315 316 314 313 314 316 314 309 308 312 313 311 312 312 311 310 311 314 318 317 314 312 312 313 313 312 314 315 315 315 313 314 319 317 315 316 317 319 321 322 322 318 314 314 311 308 305 301 302 304 304 306 309 310 310 309 310 312 312 311 310 309 310 312 313 315 317 318 319 320 321 321 322 323 324 325 325 326 326 326 326 326 326 326 325 325
317 316 314 315 315 316 316 313 312 312 311 312 312 310 309 310 311 313 314 313 313 315 314 313 313 312 312 314 314 314 314 315 315 313 313 313 314 318 321 323 324 320 316 314 308 303 302 302 302 304 305 308 309 310 310 309 309 310 311 312 311 309 310 311 314 315 316 318 318 318 318 319 320 322 323 324 324 325 325 325 325 324 324 324 324 324
319 315 313 316 316 316 316 315 315 314 311 313 316 312 310 311 311 312 314 313 312 315 314 313 314 312 309 311 311 310 312 315 314 313 313 313 313 315 317 322 325 322 319 316 309 305 304 303 303 303 305 307 309 310 310 310 310 310 310 311 311 310 310 311 313 314 316 317 318 319 319 319 320 321 322 323 324 324 324 323 324 323 322 323 323 321
319 315 312 316 315 315 317 316 316 316 312 313 316 312 310 310 310 313 317 315 313 313 313 312 312 312 311 312 314 315 317 319 317 316 319 319 317 317 318 321 322 320 318 316 310 306 305 304 303 302 304 306 308 309 310 310 311 310 310 310 310 310 311 312 314 316 317 319 320 320 320 320 321 321 322 323 322 322 322 323 322 322 321 320 320 318
320 314 313 316 314 315 321 319 316 316 314 313 314 313 311 311 311 313 315 313 313 314 313 312 312 312 311 313 317 320 320 320 318 317 318 318 318 320 320 321 323 320 317 315 312 311 311 309 304 301 301 304 307 308 309 310 311 311 311 311 311 312 312 313 315 317 319 319 320 320 320 320 321 321 321 321 321 320 321 320 319 319 318 318 317 317
317 313 314 315 314 316 322 320 315 315 314 314 314 313 312 311 312 312 313 312 313 314 313 312 313 312 310 311 313 314 315 316 313 310 309 310 316 323 324 327 330 327 322 319 316 314 313 311 306 302 301 302 304 306 307 309 311 311 312 313 313 313 314 314 316 318 319 319 318 318 319 319 319 320 320 319 319 319 319 317 317 317 317 317 317 317
313 314 315 313 312 315 318 317 315 316 315 313 313 313 311 310 311 311 312 312 311 312 312 312 314 313 312 312 311 312 317 318 313 311 312 315 321 328 330 333 336 333 327 323 318 313 311 311 307 302 300 300 302 303 305 307 309 311 312 313 314 315 315 315 316 317 317 318 317 317 317 318 318 318 318 316 316 317 317 316 316 317 316 316 316 315
313 315 313 312 312 312 313 314 314 315 316 314 313 312 311 310 311 310 311 311 311 312 311 311 313 312 313 316 315 314 318 318 314 316 320 319 319 323 329 332 334 334 331 328 323 315 311 310 308 303 300 299 301 303 306 308 309 311 312 313 314 314 315 316 316 316 316 316 316 316 316 316 316 317 317 315 314 314 315 315 315 315 315 314 313 312
313 314 312 311 313 312 310 312 313 313 314 315 313 312 311 310 311 311 311 311 311 312 311 312 312 310 313 319 317 314 316 317 315 316 318 318 316 319 325 327 330 335 336 335 330 323 318 315 312 307 301 299 300 303 305 308 309 310 312 312 313 314 314 315 315 316 315 316 316 316 316 315 315 315 315 315 314 314 314 314 314 313 312 311 311 310
313 314 312 312 314 312 309 311 313 313 314 314 313 312 311 311 311 311 311 312 311 312 312 311 311 311 314 317 314 314 317 318 318 318 317 318 318 317 318 321 327 333 332 331 332 334 332 321 309 303 300 299 302 305 306 308 309 309 311 312 313 313 312 313 314 314 314 314 315 314 314 315 314 313 313 313 313 313 313 313 312 311 310 309 309 308
314 314 312 313 315 314 310 312 314 315 315 314 314 313 311 311 311 312 312 311 311 311 311 311 312 313 314 313 312 315 317 317 316 315 313 314 316 316 314 316 324 329 326 323 324 328 327 315 304 300 302 302 304 306 307 307 308 309 310 311 312 312 312 311 311 312 313 312 313 313 313 313 314 313 311 311 311 311 310 310 310 309 308 308 307 305
314 313 313 314 315 312 310 313 314 314 314 313 316 316 312 310 311 311 312 312 311 311 311 311 312 313 314 313 312 313 314 314 313 313 311 310 311 314 316 319 325 326 325 326 326 323 314 305 300 300 301 303 303 304 305 306 307 308 309 310 310 310 310 310 310 310 311 311 311 311 312 312 312 312 311 310 310 310 308 308 308 307 307 306 305 303
312 313 313 314 313 310 311 313 314 315 314 314 315 313 312 311 311 312 312 312 311 311 311 311 311 311 313 313 312 313 313 312 311 311 310 308 307 310 314 318 319 320 322 324 323 318 308 301 301 303 303 303 302 302 303 304 305 306 307 308 309 309 308 309 309 308 309 309 309 309 309 310 310 309 310 309 308 307 306 306 306 306 305 303 301 298
311 312 312 313 313 312 312 313 315 316 315 314 313 311 311 312 311 311 312 312 311 311 311 310 310 311 312 312 312 313 311 309 310 311 309 310 312 311 310 311 312 313 314 311 307 305 303 302 304 305 304 302 301 301 302 302 303 305 305 306 307 307 307 306 307 308 308 308 308 308 307 307 307 307 307 307 306 305 304 304 304 304 303 300 296 294
311 312 312 312 313 313 313 313 315 315 314 313 313 311 310 312 313 312 312 313 312 311 310 309 310 310 309 310 313 313 310 309 310 310 310 314 316 314 311 309 308 307 304 302 300 300 301 302 303 304 303 302 301 301 302 302 302 303 304 304 304 305 305 305 305 307 308 307 307 307 306 305 306 306 305 304 303 303 302 302 302 301 300 298 294 291
313 314 314 314 313 314 314 313 313 314 312 314 316 313 313 315 314 313 315 314 312 311 310 309 310 310 309 309 310 311 311 312 311 310 311 313 313 311 311 309 307 302 298 299 300 300 301 302 302 302 302 301 300 300 301 301 301 302 302 302 303 303 303 304 305 306 307 307 307 307 305 304 304 305 305 303 302 302 301 300 300 298 296 294 292 290
314 313 313 314 313 314 314 314 315 314 313 316 317 313 311 313 313 316 316 314 314 315 312 309 309 309 309 309 308 309 310 311 310 309 310 310 310 309 309 308 308 306 300 299 299 299 301 302 302 301 300 300 300 300 300 300 299 300 301 301 301 301 302 304 304 305 306 306 306 306 305 304 304 304 304 303 302 301 301 299 297 295 292 291 290 289
313 314 315 314 313 313 314 315 316 315 315 318 316 309 309 312 314 315 314 315 320 319 311 309 310 309 309 308 307 308 309 309 312 315 316 314 312 312 311 305 302 301 298 297 298 299 300 301 302 302 301 301 301 300 299 299 298 297 299 299 299 300 302 303 303 303 304 305 305 305 305 304 304 303 303 303 302 300 298 297 295 292 290 289 289 288
313 315 317 315 313 314 314 314 315 316 317 318 313 307 308 313 314 313 315 321 329 323 311 308 310 309 309 308 307 308 308 309 312 315 318 318 314 314 316 309 303 301 299 296 297 299 300 300 300 300 300 299 299 299 299 298 297 296 297 297 298 299 300 301 302 302 303 303 303 304 304 303 303 302 302 301 301 299 295 293 291 290 289 288 288 287
313 314 315 315 314 315 315 315 316 318 314 312 309 307 310 314 313 314 318 321 322 322 317 313 310 309 310 308 307 308 309 310 311 312 317 322 317 313 313 311 307 305 299 294 295 297 298 298 297 297 298 297 298 299 299 298 297 296 296 296 297 298 298 299 300 301 301 302 303 302 302 302 301 300 300 299 298 297 293 290 288 288 288 287 287 286
313 313 314 314 313 315 315 314 315 315 310 308 309 309 310 314 313 315 318 318 316 316 316 315 312 309 309 308 307 307 307 309 311 313 316 320 318 315 314 310 307 302 296 293 295 297 297 297 296 296 297 297 297 298 298 298 297 296 295 296 296 296 297 297 298 299 299 300 301 300 300 299 298 298 298 297 295 294 291 289 287 287 286 286 286 285
313 312 315 316 313 313 314 313 312 313 309 308 310 310 310 313 313 312 314 317 319 313 309 314 315 309 307 309 308 307 308 308 309 312 314 315 317 319 316 309 302 298 295 292 294 296 296 296 296 295 295 296 296 297 297 298 297 296 295 296 296 295 296 296 296 297 297 298 298 298 297 296 295 295 295 294 293 291 289 288 286 285 285 285 284 284
313 312 315 317 313 311 313 313 310 310 309 307 310 313 311 310 312 311 312 318 324 316 308 313 318 310 307 310 309 309 310 308 306 309 311 312 315 315 312 307 297 291 291 292 292 294 295 295 295 294 294 294 294 295 296 296 296 296 295 295 295 295 295 296 295 295 296 296 295 295 295 293 292 292 292 291 291 290 289 288 286 285 284 283 283 283
312 312 313 316 314 312 314 313 310 311 311 307 308 313 312 310 311 312 314 321 325 316 307 309 313 308 305 309 311 313 313 308 307 309 308 309 314 313 312 312 303 290 287 290 292 293 294 293 292 291 291 292 293 293 294 295 294 295 295 295 295 295 294 295 295 294 293 293 293 292 292 291 290 289 288 288 288 288 287 287 286 284 283 283 282 282
311 311 313 315 314 312 312 311 312 315 314 308 307 310 311 311 311 312 314 315 315 310 305 306 308 307 306 307 309 312 313 308 308 311 309 307 310 309 308 309 303 293 289 290 291 293 293 291 291 290 290 291 292 292 293 294 293 294 294 294 294 294 293 293 293 293 292 292 291 290 290 290 289 288 287 286 286 286 285 285 284 284 284 284 284 283
310 310 313 315 313 311 311 311 312 315 312 307 307 308 310 311 311 311 311 309 309 311 309 307 306 306 306 307 306 308 314 314 309 309 312 310 307 307 307 302 294 290 289 290 291 292 292 291 290 290 290 291 292 293 292 292 292 292 293 293 293 293 293 292 292 291 291 290 289 289 288 287 287 287 286 285 285 285 285 285 284 284 284 284 285 285
310 311 311 312 312 311 311 309 308 310 310 308 306 307 310 312 312 310 310 309 310 314 315 313 309 303 302 304 304 306 315 317 308 304 310 310 305 303 302 296 289 286 287 289 290 290 290 291 291 290 290 290 290 291 291 291 291 291 291 292 293 292 292 291 290 289 289 288 287 287 286 285 285 285 285 284 283 283 283 283 283 283 283 284 284 284
310 311 309 310 311 311 311 310 308 310 312 311 308 306 307 309 310 311 310 309 310 312 313 317 318 313 308 305 302 304 311 313 305 302 306 307 300 295 293 292 289 287 286 287 289 288 288 290 290 289 290 290 289 290 290 290 290 291 291 291 292 291 291 291 289 288 286 286 286 286 285 285 284 284 283 283 283 282 282 282 282 282 282 283 282 282
Wind_Speed
3 5 6 8 8 9 10 10 9 6 6 5 4 4 4 4 5 4 3 5 1 3 5 7 7 9 9 11 14 8 3 5 7 6 7 7 6 7 8 8 9 10 12 12 16 20 21 23 26 28 29 30 29 30 31 32 34 35 34 34 35 36 36 36 35 33 33 32 32 33 32 33 33 31 31 30 30 30 29 27 26 25 25 24 23 22
3 7 9 8 10 11 11 10 9 6 5 4 4 4 3 3 5 5 4 4 1 2 5 3 5 10 10 11 14 8 4 6 8 8 9 9 9 7 7 9 10 10 9 7 12 17 19 22 25 27 29 30 30 32 34 36 37 37 36 37 37 36 37 38 38 36 36 36 36 34 34 34 32 31 31 31 31 30 29 29 27 27 27 26 25 24
5 8 7 8 8 8 8 7 8 6 5 4 4 4 3 3 3 6 4 3 1 2 4 3 3 9 10 11 13 11 8 8 9 10 10 10 9 7 8 10 10 9 9 8 12 15 19 23 24 26 28 31 33 34 36 37 36 36 37 38 38 38 38 38 39 39 38 38 37 35 34 32 30 30 31 31 31 31 31 30 29 29 28 27 26 25
7 7 8 10 8 10 8 6 8 6 4 4 4 4 4 2 1 5 4 3 1 1 2 3 4 8 8 8 11 12 10 9 10 10 9 8 8 10 9 8 8 10 11 10 12 12 16 21 23 26 30 31 34 35 36 36 35 36 39 40 40 39 39 38 39 40 40 38 37 35 34 32 30 29 29 29 30 31 32 32 31 30 29 29 28 27
8 7 11 11 9 11 9 6 8 6 4 4 4 6 4 3 5 6 3 3 3 2 1 2 7 8 8 9 11 10 6 7 9 8 9 8 9 10 8 7 9 10 11 11 12 11 11 18 24 29 31 31 32 35 36 37 38 40 42 42 41 41 40 40 40 41 40 37 35 33 32 29 27 27 27 27 29 31 31 31 31 30 29 28 28 28
6 7 11 11 8 9 8 7 8 8 6 3 4 7 7 7 6 3 3 4 3 4 2 1 6 8 6 10 11 8 6 7 6 6 9 9 8 9 8 10 11 11 11 11 12 10 9 17 23 26 29 30 33 37 38 39 40 41 42 42 41 41 41 41 41 40 39 38 36 34 32 30 28 28 29 30 31 30 30 30 29 28 28 27 26 26
4 7 11 13 10 11 10 7 8 9 6 3 6 8 7 7 6 2 2 2 1 4 3 3 5 7 5 6 8 7 9 10 7 7 8 8 7 8 9 11 11 10 11 11 12 10 10 15 19 22 29 33 36 39 38 37 39 40 40 39 40 41 42 41 40 40 39 39 38 36 35 35 33 32 32 32 31 30 29 29 28 28 27 26 25 24
7 10 9 12 10 9 9 8 9 12 8 4 6 10 9 6 4 3 2 1 3 3 3 2 2 6 7 6 7 6 8 10 8 9 10 9 9 10 10 11 11 12 12 10 11 11 11 15 19 24 31 35 37 37 35 36 38 39 39 40 40 41 41 40 39 39 40 40 39 38 36 35 35 35 33 31 30 30 29 28 28 28 27 25 24 23
8 14 14 15 11 8 11 10 12 14 7 4 5 10 8 6 5 3 2 2 1 3 5 2 2 5 7 5 4 4 8 11 11 11 11 10 10 11 11 12 13 13 11 9 10 10 11 17 23 28 30 31 35 35 34 37 38 37 38 38 38 39 40 39 38 39 40 40 40 38 37 36 36 35 33 31 30 29 28 28 28 27 26 25 24 24
4 9 13 16 12 9 8 6 12 13 5 2 6 7 5 4 4 3 2 2 1 3 7 4 3 4 8 5 4 2 7 13 13 10 10 10 10 10 10 11 12 11 9 8 9 11 14 19 23 25 25 26 30 32 33 35 35 35 35 35 36 38 39 38 38 38 39 39 39 38 38 37 35 33 32 31 30 29 28 27 27 27 27 26 25 24
0 3 6 8 7 7 5 6 5 9 8 7 6 7 7 4 4 3 1 2 1 7 6 6 7 4 7 4 7 5 7 10 10 7 8 9 10 10 9 10 11 9 7 6 7 10 14 18 19 19 23 26 27 27 28 31 33 34 34 34 36 38 38 38 37 37 38 39 39 39 39 38 37 34 32 32 31 30 29 28 28 28 27 27 26 25
3 6 4 2 2 5 9 5 4 4 9 8 5 6 5 3 3 3 3 2 4 8 2 3 5 6 7 5 5 6 5 5 8 9 10 12 11 12 10 9 8 7 6 5 6 7 9 12 14 17 21 25 25 25 27 31 33 34 34 34 35 36 37 37 37 37 38 39 39 40 40 39 38 36 34 34 34 32 31 30 29 28 27 27 26 25
3 3 2 2 1 4 10 7 4 3 6 6 5 6 5 1 1 1 1 1 5 6 1 2 1 4 10 6 4 7 7 6 9 9 11 12 11 12 10 7 5 4 5 5 5 6 6 6 9 14 19 22 23 26 28 30 31 32 33 34 35 36 37 37 37 38 38 39 40 41 40 40 39 37 37 36 35 34 33 32 30 29 28 27 27 26
2 4 2 3 2 3 9 10 4 2 5 7 7 6 6 4 3 5 4 1 4 5 2 1 1 4 9 4 6 11 10 8 8 8 9 8 9 10 7 5 5 5 6 6 6 6 6 6 8 13 17 20 22 25 26 27 29 31 32 33 34 35 35 35 36 37 38 39 40 40 40 40 39 38 38 37 35 34 33 33 31 30 30 29 28 28
9 2 4 9 4 5 10 10 9 9 8 8 8 6 5 6 5 6 6 3 4 2 2 2 2 4 4 3 6 9 8 7 6 7 6 6 9 8 6 5 6 8 8 7 6 7 7 8 10 12 15 18 20 22 23 25 27 28 30 32 33 33 33 33 35 35 37 39 39 39 39 39 38 37 36 36 35 34 33 33 32 32 31 30 30 28
11 5 3 2 2 10 12 7 8 12 9 5 4 5 4 5 5 3 4 4 3 1 1 3 4 4 4 6 10 7 7 8 7 7 6 8 9 5 5 7 7 9 8 7 7 7 7 8 10 11 13 14 16 18 21 24 25 27 29 30 31 32 31 31 33 35 36 37 37 37 37 37 36 35 34 34 34 33 33 33 32 32 31 30 29 27
9 3 3 4 3 10 10 7 8 9 8 2 3 7 5 3 7 5 1 1 4 2 3 2 6 6 3 8 11 9 10 9 8 8 8 10 8 4 6 8 8 8 8 7 6 6 6 6 7 10 10 10 11 14 17 20 23 25 26 27 28 29 30 30 32 34 34 35 34 34 35 34 34 34 34 33 33 33 32 31 31 30 30 29 27 26
7 3 3 1 5 5 2 7 6 3 6 6 6 8 4 3 3 4 1 2 3 3 4 2 8 7 2 6 5 2 7 10 10 9 7 7 6 6 9 9 8 8 7 6 5 5 5 5 6 8 9 9 10 10 12 14 17 20 22 24 26 28 29 30 31 32 32 33 33 33 33 33 33 33 33 33 33 32 31 30 29 28 28 27 26 25
6 4 3 1 4 1 2 6 6 2 0 5 6 7 6 3 4 3 3 2 2 3 4 3 5 5 7 8 3 1 5 7 9 10 8 8 7 7 9 9 9 6 5 6 5 4 5 5 7 8 9 10 10 9 10 10 12 14 17 20 22 24 26 28 28 29 30 30 31 31 31 32 32 32 32 32 31 30 30 29 28 27 27 25 25 24
6 5 1 1 1 2 1 4 8 5 1 3 4 5 2 2 5 4 3 3 4 4 4 4 4 3 7 7 5 8 9 7 8 9 10 11 9 7 7 8 7 5 5 6 5 6 5 5 7 7 8 8 9 9 9 10 11 12 13 14 17 19 21 23 25 26 27 28 28 29 29 30 30 30 30 30 29 29 28 27 27 26 25 25 25 24
4 3 3 0 2 3 4 4 9 11 7 4 6 8 5 2 2 2 2 2 4 5 3 2 4 6 6 4 9 12 12 11 11 12 12 10 7 7 7 7 6 6 6 5 5 6 4 3 5 5 6 8 9 9 9 9 11 12 13 13 13 15 17 19 22 23 25 26 26 27 28 28 28 28 28 27 27 26 25 25 24 24 24 24 24 23
4 4 6 4 2 4 4 3 3 7 9 9 7 8 9 6 4 4 6 3 3 4 4 3 5 9 5 4 8 9 10 12 11 10 11 9 6 7 7 7 6 6 6 5 5 5 3 3 5 6 7 8 9 9 8 9 10 11 13 13 13 13 15 17 19 21 23 24 25 25 25 25 25 25 25 25 24 25 24 23 23 24 23 23 22 22
3 5 6 4 4 4 4 3 1 3 5 5 4 5 7 6 5 6 7 4 3 1 2 4 2 8 5 6 8 9 9 8 5 5 7 7 5 6 7 6 6 6 6 5 3 4 3 4 7 7 8 9 9 9 8 8 9 10 11 12 13 13 13 14 15 18 20 21 22 23 23 23 23 23 23 23 23 24 23 23 23 23 23 23 22 22
3 5 5 4 1 3 4 2 1 1 2 5 8 7 8 9 8 5 4 4 4 4 3 3 4 10 6 4 6 7 5 4 4 4 6 7 6 6 7 6 5 5 4 3 3 3 2 4 5 6 7 9 9 9 9 8 9 9 10 11 12 13 13 13 13 14 16 18 19 20 21 21 21 22 22 22 23 23 23 23 23 22 22 22 21 21
4 5 6 7 3 2 3 2 2 3 4 6 6 6 7 9 8 4 2 3 3 6 7 5 8 11 4 1 4 6 6 7 8 5 4 6 7 6 6 6 5 4 2 2 2 1 1 2 4 5 7 9 9 10 10 9 9 9 10 11 12 13 13 13 13 13 14 15 17 18 18 19 20 21 22 22 22 21 22 22 21 21 22 22 22 22
4 5 8 9 10 9 9 8 6 6 5 2 2 6 9 11 12 7 2 3 5 7 8 7 12 11 1 2 3 4 5 7 8 4 3 5 7 7 6 6 5 4 3 3 3 2 2 3 4 5 8 10 11 12 12 10 10 9 9 9 10 12 14 14 14 14 14 15 16 17 17 18 20 21 21 21 21 22 22 21 21 22 23 23 23 25
4 4 7 9 12 13 10 7 5 7 7 5 4 8 9 9 11 8 4 4 7 4 5 11 18 14 3 2 4 5 4 7 7 5 5 5 6 6 6 6 5 4 4 3 3 3 4 4 5 6 9 11 12 13 13 11 11 11 10 10 10 12 14 15 15 15 16 17 17 18 18 19 20 21 20 20 21 22 22 21 22 24 25 25 27 29
4 7 10 11 14 11 6 7 9 12 11 10 7 9 10 9 10 10 9 13 8 5 6 20 21 20 14 6 6 8 6 7 7 6 6 6 5 5 4 5 6 5 5 4 5 5 5 6 5 5 9 12 13 13 13 12 11 12 12 11 12 13 15 16 16 17 18 18 18 19 20 20 20 21 20 20 22 23 22 23 25 26 27 27 28 29
4 10 12 13 14 9 6 8 12 13 12 14 13 14 15 14 15 16 18 18 11 8 19 26 18 19 18 8 9 12 7 7 8 6 5 4 4 5 4 5 6 6 6 6 6 7 7 7 6 6 9 12 12 12 12 13 13 14 14 13 14 15 16 17 18 19 19 19 19 20 21 21 21 21 20 22 24 23 23 25 27 28 28 28 27 26
5 7 10 12 12 7 5 7 11 12 11 12 15 16 17 17 19 20 21 23 19 19 26 21 9 13 14 8 11 11 6 6 6 4 5 5 5 6 5 6 7 7 7 7 7 7 7 8 7 6 8 10 11 12 13 14 15 16 17 16 17 17 17 18 19 19 20 20 20 21 21 21 22 21 20 23 26 26 27 29 29 29 28 27 26 24
8 8 9 10 8 5 4 5 8 10 12 12 13 13 15 17 20 22 24 23 19 19 22 16 9 13 10 7 7 6 3 3 4 6 8 7 6 6 7 8 8 7 8 8 8 8 7 7 7 6 8 11 14 15 16 17 17 18 19 18 19 19 19 20 19 20 20 20 20 21 21 21 23 22 22 23 26 27 29 30 29 29 28 27 25 24
10 5 6 8 8 5 3 5 6 6 8 9 10 12 16 19 20 21 20 17 15 16 18 16 14 14 6 6 5 4 3 5 8 10 9 7 7 8 9 10 9 8 9 9 8 8 9 9 8 8 10 13 17 19 20 21 21 21 22 22 21 21 21 21 21 20 21 21 21 22 22 22 23 25 26 26 27 28 28 27 27 27 26 26 25 24
8 6 5 9 10 4 1 7 9 8 5 5 11 18 25 24 19 16 15 17 18 16 15 16 15 10 5 8 8 7 7 8 9 10 9 8 9 9 10 10 9 9 9 8 8 9 10 9 10 12 15 18 22 26 27 27 27 26 26 25 23 23 22 22 22 22 22 23 23 23 24 24 25 26 27 29 29 29 29 28 27 26 25 25 24 24
8 9 5 7 7 4 5 8 9 7 8 10 11 18 23 21 20 18 18 20 19 16 15 16 13 7 7 9 11 10 10 10 10 11 10 8 9 9 9 9 9 9 9 7 8 10 9 8 9 14 19 22 26 28 29 29 28 27 26 25 24 24 23 22 22 22 23 24 25 25 25 26 27 27 28 29 29 29 29 28 28 27 25 24 24 25
12 9 4 3 3 4 6 8 7 10 13 8 3 9 15 16 20 21 21 22 21 19 19 18 14 8 8 10 11 10 11 11 9 10 11 9 8 8 8 9 10 9 9 9 10 10 8 7 10 14 19 23 25 26 27 29 28 26 26 26 25 25 24 23 22 22 23 24 25 27 28 28 28 28 28 29 28 29 29 28 28 27 25 24 25 28
14 9 4 2 3 4 5 8 10 9 6 1 1 4 11 15 18 17 18 22 19 15 15 17 18 13 10 10 9 9 10 7 5 9 11 8 7 7 8 9 10 10 11 11 10 10 11 13 16 19 20 21 24 26 28 29 28 26 26 26 26 25 24 24 24 24 24 25 26 27 29 30 30 29 29 29 29 29 29 28 28 27 26 27 29 32
12 10 6 3 2 3 6 8 5 3 2 5 7 8 12 14 15 15 14 16 13 12 15 19 21 17 11 9 9 6 3 2 6 11 10 8 9 11 11 11 11 12 12 11 11 12 14 18 20 19 18 19 23 27 28 28 27 27 26 26 26 26 26 26 26 27 27 27 27 28 28 29 30 30 30 30 30 30 30 30 29 29 29 31 33 34
10 9 10 8 2 2 5 5 3 2 8 14 14 12 11 8 10 13 7 10 13 17 20 20 20 18 14 11 8 4 3 1 10 13 7 9 12 14 13 14 15 13 10 9 10 12 13 15 16 16 16 20 24 26 26 27 28 28 27 27 27 27 27 27 28 29 29 29 29 29 29 29 29 29 29 30 31 32 32 31 31 30 32 34 35 36
7 5 8 8 3 3 6 6 6 8 14 13 8 10 11 11 13 14 4 11 15 17 19 20 21 19 16 14 11 8 5 7 13 12 8 12 16 15 15 16 14 10 9 11 12 12 14 15 15 15 18 21 23 24 25 27 29 29 27 28 28 28 29 30 31 31 31 30 28 28 29 30 29 30 31 32 32 32 32 31 31 32 33 35 36 36
8 6 7 8 5 6 9 7 5 8 11 7 8 10 12 15 16 13 2 13 12 14 18 21 22 20 18 16 13 11 10 13 14 13 13 14 14 12 12 14 11 9 11 14 14 12 14 16 16 17 19 21 21 22 24 27 29 28 27 28 28 29 31 33 32 30 30 29 28 28 29 29 30 31 31 32 31 30 30 30 32 33 35 35 36 36
6 5 6 8 9 10 11 9 5 6 7 6 8 11 16 17 13 9 11 10 8 12 15 19 21 20 17 16 13 11 15 19 14 7 6 8 9 8 9 9 9 9 11 14 15 13 14 15 15 15 16 18 18 21 25 27 28 26 26 26 27 30 32 30 28 28 29 28 28 29 29 30 30 30 30 30 30 30 30 32 34 36 37 37 37 37
6 5 3 6 9 8 7 7 4 8 8 10 9 10 15 13 8 10 8 2 5 9 10 12 15 14 13 14 14 14 18 17 8 1 4 7 8 8 7 6 6 6 5 8 12 14 14 14 13 12 12 14 17 21 25 27 26 24 24 25 28 30 28 25 26 28 28 28 28 29 30 30 31 30 30 30 30 31 32 33 35 37 38 38 38 38
11 11 9 9 8 4 3 6 4 9 8 17 16 7 8 9 8 6 3 3 1 7 8 9 10 10 11 14 16 17 16 10 5 4 4 5 4 4 5 6 6 6 6 7 10 14 14 13 12 12 11 12 16 19 24 26 25 23 23 25 27 26 23 23 25 26 27 28 29 29 30 31 31 31 31 31 32 33 34 35 36 37 38 39 39 38
10 11 10 9 8 7 8 11 8 6 7 20 19 10 9 8 6 5 6 3 3 5 6 7 8 9 11 13 14 15 12 6 5 8 8 6 4 4 5 5 5 6 6 7 9 13 13 12 12 12 11 12 15 19 23 26 25 23 23 24 23 22 22 23 24 25 27 28 29 29 30 31 31 32 32 32 33 35 36 37 38 38 38 39 39 38
13 12 8 7 10 9 8 9 5 1 5 12 11 10 12 12 7 4 6 5 4 6 5 6 7 9 10 11 10 10 10 9 8 9 7 7 6 5 5 5 5 6 7 7 8 12 14 13 13 13 13 14 16 18 22 26 25 23 23 23 21 21 22 23 24 26 27 28 29 30 30 30 30 31 32 33 35 37 38 39 39 38 38 38 38 37
8 7 5 4 6 4 5 6 3 2 2 8 5 3 11 15 9 4 5 4 4 7 6 4 7 9 9 9 8 8 9 11 10 9 8 6 5 5 5 5 5 6 8 9 10 12 14 12 12 14 14 14 16 18 21 24 24 23 22 22 21 21 22 23 25 26 27 29 29 30 30 30 31 32 32 34 36 38 40 41 41 40 38 38 37 36
2 6 5 4 6 7 9 8 6 2 5 9 7 4 7 10 6 5 6 5 4 7 6 4 5 8 8 9 10 10 10 9 9 9 8 7 6 6 6 6 6 7 9 10 11 14 15 13 12 13 13 14 15 17 19 21 22 21 20 20 21 22 23 24 25 27 28 28 29 29 31 32 32 33 34 35 37 37 39 40 41 40 39 39 37 35
3 6 6 4 8 9 8 5 7 7 9 12 11 7 5 7 6 5 3 3 2 4 5 4 4 7 7 8 10 10 7 7 9 9 8 7 7 6 6 6 6 7 8 9 12 14 14 13 12 12 12 13 14 17 18 19 21 20 19 19 21 22 23 24 26 26 27 28 29 30 31 33 34 34 35 36 38 39 39 40 40 41 42 44 43 41
5 7 8 7 7 6 7 6 9 9 8 10 10 6 4 5 8 7 5 3 3 4 5 4 3 4 7 8 7 7 7 7 9 9 8 8 7 6 6 5 7 9 10 11 13 14 13 12 12 12 12 12 14 16 18 18 19 20 19 19 21 22 23 25 25 25 26 27 28 30 31 32 33 34 35 36 37 38 38 40 41 41 41 43 45 46
7 9 9 7 8 11 12 10 11 9 6 8 10 10 9 7 8 10 8 5 5 6 7 6 2 1 3 6 6 8 8 8 7 8 7 7 6 6 6 6 7 9 11 12 13 13 12 10 10 11 12 12 13 15 17 18 19 19 18 19 21 22 24 24 24 24 25 26 28 29 30 31 31 33 34 35 35 35 34 35 36 37 37 38 39 40
11 13 13 11 13 16 11 10 12 9 7 7 10 13 12 8 8 11 12 10 10 8 8 9 7 4 4 5 5 7 8 6 6 7 6 5 5 6 8 9 9 9 12 13 14 12 11 9 9 10 11 11 12 14 16 17 18 18 19 19 20 22 23 24 24 24 25 26 28 29 30 31 31 32 32 33 34 33 32 31 31 32 33 33 34 34
Wind_Direction
144 159 194 194 178 173 174 186 193 183 188 184 145 169 183 188 249 258 250 287 229 170 244 227 223 239 237 244 255 254 168 214 248 251 249 244 239 236 230 234 233 234 242 244 240 235 230 228 226 224 223 223 223 223 223 223 224 225 224 224 226 228 228 227 225 225 224 224 225 227 229 233 236 238 240 242 243 243 242 241 241 242 243 243 244 244
158 190 198 188 174 174 178 180 178 169 165 164 154 173 210 209 244 256 244 300 326 186 267 254 226 245 242 242 252 247 197 224 234 230 241 241 238 239 238 241 237 241 252 253 246 235 225 225 225 223 223 221 221 222 222 224 225 224 224 224 226 227 227 226 226 225 225 226 227 226 228 232 234 236 238 241 244 246 247 245 244 243 243 244 244 244
192 207 184 164 165 167 172 161 154 161 159 155 139 146 216 226 259 272 262 307 24 174 274 308 262 255 251 246 254 252 231 234 230 220 232 235 237 240 236 240 242 251 261 252 247 235 221 220 220 219 220 220 222 223 224 224 224 223 223 224 226 226 226 226 226 226 226 228 229 229 230 231 231 234 238 241 244 247 249 249 248 245 243 244 244 243
194 203 167 154 160 167 170 156 146 147 144 153 145 159 215 201 190 261 278 305 294 170 273 319 304 272 264 259 258 252 236 240 241 230 233 232 231 237 236 240 238 243 250 248 249 237 217 215 214 215 218 219 221 223 224 223 222 223 224 225 225 225 225 225 226 228 229 230 231 231 233 234 233 235 240 242 243 245 247 248 248 247 246 244 244 243
181 166 157 157 166 168 163 161 159 162 179 191 181 176 185 173 203 237 291 318 319 342 331 318 299 273 252 250 255 254 230 234 247 239 241 242 237 246 258 259 239 235 239 239 247 241 209 208 213 215 218 218 218 221 222 221 221 223 225 226 224 224 225 225 227 228 228 227 228 229 230 231 231 233 234 234 236 239 240 243 244 246 247 247 245 244
176 151 152 152 158 159 157 173 177 176 180 216 214 183 173 174 191 229 350 2 358 321 310 211 270 269 249 241 245 252 238 237 251 244 243 244 241 247 258 256 244 241 242 235 244 244 210 210 217 218 218 216 218 222 223 222 223 224 225 225 224 224 224 225 226 226 225 223 223 223 220 220 219 221 224 226 229 232 234 238 241 244 247 248 247 246
173 167 160 158 162 163 171 191 191 169 154 219 217 176 162 151 137 114 45 38 192 266 283 142 232 269 287 256 244 250 248 246 254 263 260 252 244 238 238 247 246 243 243 239 243 242 221 215 214 218 219 217 220 225 224 223 225 225 225 225 224 224 224 224 223 222 222 221 221 221 220 219 218 219 223 227 231 232 234 237 240 243 245 247 247 245
157 164 169 162 156 160 181 198 190 167 153 226 203 158 154 148 155 179 139 190 222 269 293 130 191 271 277 257 237 237 254 265 270 269 268 253 242 236 232 242 245 241 240 238 242 241 230 223 217 219 222 221 225 226 223 223 225 225 225 225 224 225 224 223 222 220 220 220 220 220 220 221 222 223 225 227 231 232 234 236 238 241 243 244 244 243
145 164 176 167 161 183 198 193 175 159 154 234 183 147 154 157 173 185 159 248 291 353 285 225 108 270 267 248 226 230 245 254 251 244 248 245 239 233 228 237 241 243 241 232 240 244 237 232 228 228 228 227 229 227 224 225 227 226 225 224 223 224 224 222 221 220 220 220 220 219 219 221 223 225 226 227 230 231 232 232 234 236 238 240 241 240
167 176 175 166 172 196 188 154 159 158 149 187 145 110 95 99 94 108 169 228 17 300 256 206 145 265 273 231 182 226 242 240 240 233 236 242 243 235 226 233 239 245 244 231 236 244 244 243 240 240 239 235 233 229 226 227 226 225 224 222 222 223 223 222 220 219 219 220 219 219 220 221 223 224 225 226 227 229 227 226 228 230 233 235 236 236
277 112 147 164 181 181 123 83 144 156 139 129 115 81 64 50 45 58 92 99 194 269 252 177 167 209 283 237 171 201 227 220 226 231 238 243 248 246 235 231 236 241 243 238 244 252 255 256 254 251 246 241 237 233 228 226 225 224 223 221 222 223 223 221 220 218 219 219 219 220 221 221 223 222 221 222 223 224 223 222 223 225 229 233 234 235
74 119 161 211 185 136 108 78 25 107 138 128 103 98 85 16 29 42 5 76 213 253 260 199 180 174 247 245 176 241 268 220 217 219 228 234 235 239 238 234 236 242 246 245 251 258 261 261 256 249 245 242 237 231 227 225 223 221 220 219 220 221 221 219 219 218 218 219 219 221 222 223 224 222 221 221 221 221 220 220 221 222 225 228 230 233
75 163 211 13 298 155 131 121 27 46 149 129 104 115 111 34 53 174 244 165 232 253 276 292 264 204 245 245 184 252 272 241 228 222 225 227 227 235 239 241 243 244 248 248 248 253 255 253 247 241 241 241 234 229 226 224 221 219 217 216 217 219 220 217 217 218 218 219 220 221 222 223 224 223 223 223 223 221 221 220 219 219 220 222 225 227
117 312 274 145 242 207 153 148 143 163 164 149 152 150 149 158 164 200 205 212 251 253 269 277 206 248 272 281 208 229 242 237 232 236 240 235 236 245 251 261 268 257 244 241 245 251 251 242 238 238 238 237 234 230 227 224 220 218 216 214 215 219 219 216 216 217 217 219 221 222 222 223 223 223 223 224 224 223 222 221 220 220 221 221 224 227
169 231 204 180 192 185 172 168 158 147 157 176 170 157 175 179 175 192 191 199 222 235 296 267 202 210 232 270 239 233 258 275 259 249 256 254 250 258 279 284 271 262 252 239 236 241 246 241 236 237 237 236 236 233 228 225 221 218 216 215 215 217 217 216 216 216 217 220 221 222 223 223 223 223 223 224 225 225 225 225 224 225 225 225 228 233
183 208 229 206 160 168 170 166 143 135 152 199 151 138 210 197 146 147 183 180 152 144 251 220 231 222 201 274 277 256 263 278 271 270 270 259 257 268 284 271 255 255 256 244 235 237 244 243 237 237 237 236 236 233 230 226 221 219 217 216 216 217 217 217 217 218 219 220 221 222 222 223 222 223 223 224 225 226 227 229 228 229 230 231 234 238
185 205 324 12 112 171 167 152 159 154 152 153 147 176 204 155 117 115 213 27 90 192 241 204 250 280 313 282 274 257 255 262 267 269 258 256 264 268 261 257 249 250 256 254 246 244 246 242 236 234 229 226 227 228 229 228 225 222 220 218 218 218 218 219 219 220 221 221 221 222 222 223 222 222 223 224 226 228 229 230 231 232 233 234 237 239
168 129 334 75 145 195 189 133 159 189 141 139 180 186 142 77 97 110 164 360 65 222 264 230 241 263 278 266 287 271 241 253 262 261 258 269 277 269 261 260 258 254 259 268 262 261 266 255 237 227 214 209 209 215 221 224 225 224 223 222 220 219 219 220 221 221 222 221 221 221 222 222 223 223 225 226 228 229 228 229 230 231 233 235 237 239
156 124 315 256 140 214 354 123 147 304 47 146 177 173 134 159 207 151 155 188 156 223 272 287 267 254 212 230 289 342 217 235 260 267 275 275 259 251 260 265 270 270 267 267 256 248 256 249 233 215 200 197 196 201 207 210 215 218 220 222 222 223 223 221 221 220 220 221 221 222 223 223 224 225 226 228 229 229 228 228 230 230 232 234 235 236
152 138 211 291 130 159 144 160 179 194 24 61 138 166 160 179 191 172 159 168 165 194 243 296 319 266 219 202 196 231 238 227 242 260 265 261 245 235 251 260 266 263 250 247 236 229 229 232 228 205 187 183 183 193 200 204 211 212 215 218 219 223 224 222 222 220 220 221 221 223 224 224 225 225 226 227 226 227 227 228 229 230 230 231 231 230
142 134 147 93 359 154 179 213 194 177 161 147 158 177 192 169 142 165 176 144 137 164 201 271 287 262 246 187 184 212 230 225 229 242 248 251 242 234 247 256 257 254 247 240 229 226 220 218 220 194 176 173 175 188 194 199 208 208 210 213 213 216 218 218 220 219 220 221 220 222 222 222 223 223 223 224 224 224 226 227 228 227 228 228 226 224
164 141 140 147 156 176 211 264 211 182 179 177 175 181 186 171 128 161 207 200 118 160 179 179 265 267 244 191 196 205 217 225 229 236 247 251 235 235 249 250 248 252 249 241 226 219 205 189 197 186 175 172 173 182 190 196 201 203 206 209 208 211 212 213 214 215 216 216 216 218 219 219 220 219 220 220 220 221 222 223 224 224 223 223 222 221
117 107 117 136 171 199 245 283 257 210 184 178 208 193 173 173 160 170 205 202 123 175 162 114 269 272 235 187 203 208 210 226 231 227 253 266 250 246 261 261 257 256 252 256 242 214 192 182 190 186 176 173 171 177 189 197 198 200 204 206 207 209 209 209 209 209 211 212 213 213 214 215 215 215 215 215 216 216 216 219 220 219 218 218 216 213
125 119 110 95 81 311 316 320 334 2 138 192 227 204 172 190 190 162 175 168 152 196 176 113 258 264 249 193 218 236 239 265 268 232 241 270 279 269 271 280 281 272 272 287 270 224 189 182 190 189 178 173 172 179 190 195 195 198 200 202 205 204 204 203 200 201 204 205 207 208 208 208 208 208 209 210 211 211 211 213 213 211 212 210 206 202
163 144 132 117 110 6 349 308 268 238 203 206 216 186 174 185 165 115 94 135 178 210 169 153 240 252 267 291 249 272 293 281 263 238 227 256 274 279 280 287 290 290 304 302 274 238 193 191 196 198 189 180 180 187 191 194 196 196 194 196 198 196 195 194 191 193 196 195 196 197 198 199 199 201 202 202 204 205 205 205 204 203 202 197 194 194
125 159 163 152 162 176 190 202 202 197 196 197 168 166 178 181 168 162 139 142 215 216 160 176 234 243 350 53 234 267 307 282 267 278 291 256 256 269 275 280 289 288 267 241 231 219 207 206 205 203 198 193 193 193 191 193 192 188 186 189 192 190 185 184 185 187 187 185 184 185 188 191 192 193 195 196 198 199 197 196 196 195 192 190 189 186
107 179 188 178 186 189 186 182 138 125 148 173 172 163 171 179 176 168 137 184 214 182 157 219 237 244 243 151 243 278 280 265 271 298 302 270 256 263 267 277 288 275 254 235 215 214 214 214 215 211 208 204 200 196 194 193 186 177 176 176 178 180 177 177 180 182 181 181 181 182 184 186 186 187 189 192 194 191 189 189 190 189 186 186 182 175
118 191 192 190 202 195 158 144 133 131 157 176 157 154 168 165 166 176 196 213 194 108 228 235 232 242 246 209 235 262 242 239 255 257 256 256 261 268 272 285 287 274 263 245 220 216 213 217 218 213 214 211 204 198 195 192 185 177 176 173 171 173 175 175 178 179 178 178 180 181 180 181 183 184 186 189 187 184 183 185 184 182 178 175 172 169
143 201 190 188 202 189 134 148 153 147 166 178 169 171 177 170 176 192 209 216 189 169 235 237 222 235 244 209 216 244 245 249 249 236 248 271 275 268 265 269 273 267 256 241 230 222 216 218 217 208 211 210 205 200 194 190 186 180 177 176 175 175 176 177 178 178 177 178 180 179 177 179 180 179 183 184 180 178 180 179 175 172 169 168 169 169
174 202 181 180 195 183 151 166 162 151 156 175 182 180 176 176 187 198 211 219 209 210 235 242 220 236 241 198 207 238 260 273 279 296 296 285 258 245 240 245 253 252 246 239 234 229 223 222 217 207 206 204 201 199 195 192 188 183 180 179 179 178 178 179 180 179 177 178 179 177 175 178 176 175 180 180 176 174 174 172 171 170 169 169 172 173
196 191 157 161 182 187 179 174 166 161 158 171 187 184 178 184 194 204 214 219 215 223 242 251 253 254 243 181 203 254 303 288 280 272 261 249 236 231 230 239 245 244 244 240 232 228 224 222 217 205 200 199 199 198 197 195 192 187 184 182 182 181 180 181 182 182 180 179 179 178 178 178 175 173 178 178 173 172 171 170 170 171 171 171 173 173
198 185 121 143 180 208 190 146 145 143 139 160 182 184 187 194 200 208 215 214 207 218 235 242 248 253 231 151 188 248 233 213 230 238 243 244 233 222 223 231 234 234 235 231 224 220 216 214 210 204 202 199 198 199 199 197 193 192 189 186 185 183 181 182 184 184 184 181 181 182 179 179 178 175 176 177 174 172 172 172 172 172 172 172 173 173
171 149 124 161 182 212 171 139 130 108 110 186 202 196 196 199 202 208 219 218 209 206 217 227 232 229 172 152 183 209 210 218 229 228 228 235 230 220 222 227 229 233 235 229 222 220 217 212 203 201 203 201 201 203 203 199 195 195 192 188 187 186 184 184 185 186 186 183 183 183 180 179 181 179 177 177 176 175 174 175 176 176 175 174 174 177
150 148 159 174 171 172 164 143 125 141 198 222 216 199 196 198 198 204 218 221 211 206 217 228 228 205 156 171 188 197 207 216 224 224 219 218 216 213 220 228 231 237 242 240 232 228 224 218 209 207 209 210 211 209 205 201 199 196 193 190 190 190 189 188 186 187 187 185 183 183 181 180 180 180 178 178 177 177 176 176 176 176 177 178 179 180
162 158 160 161 139 150 155 139 146 199 218 227 204 176 181 194 203 207 221 224 214 212 221 232 238 217 187 196 196 193 210 220 227 235 233 224 211 198 205 222 227 231 236 237 236 234 226 215 213 216 218 218 216 211 203 200 199 196 193 192 192 193 194 195 193 191 192 190 187 186 185 183 182 181 180 180 179 179 179 179 179 178 179 182 183 180
168 160 150 125 110 124 147 163 185 214 224 203 46 149 171 193 202 205 227 234 221 211 219 230 236 224 203 212 211 201 219 242 268 256 237 223 214 202 209 224 223 219 225 226 225 220 211 210 214 217 219 217 212 207 202 198 195 192 190 190 191 193 196 197 197 197 197 197 195 193 190 188 187 185 185 184 183 182 182 181 181 181 181 180 178 176
168 154 143 143 146 148 164 187 213 319 337 211 218 202 186 191 189 188 222 240 217 197 210 223 230 226 211 214 219 214 222 313 289 260 228 199 213 217 216 226 225 221 225 224 222 222 219 218 218 217 217 212 206 204 200 194 190 188 187 187 189 192 193 194 195 198 200 200 200 199 197 194 191 188 187 187 186 185 185 183 181 181 182 179 174 172
171 161 157 165 184 111 142 190 236 283 246 230 216 192 168 155 153 155 192 251 224 201 206 216 222 221 214 211 206 172 99 228 254 253 214 185 216 223 220 229 231 226 222 210 208 219 221 216 213 209 206 203 201 200 197 191 187 186 186 187 188 189 190 194 196 197 199 199 200 201 200 197 195 193 190 189 188 186 183 182 181 181 182 179 174 171
145 142 153 157 152 123 155 191 198 213 239 238 189 151 138 131 126 115 105 269 240 202 196 209 218 215 207 204 191 160 155 228 245 249 219 205 218 219 219 231 231 215 205 200 198 205 204 197 192 190 191 195 195 195 194 190 187 184 185 188 189 189 192 198 200 199 198 199 199 199 198 196 196 195 191 187 185 184 183 182 182 181 180 178 175 172
148 154 159 158 166 174 180 198 214 229 241 220 151 146 145 137 122 107 163 254 227 181 183 199 210 211 201 193 187 176 192 220 235 242 231 219 218 213 218 232 228 205 205 209 206 202 192 183 176 176 185 193 193 191 191 188 185 185 189 189 190 193 199 202 202 200 199 199 198 198 198 196 195 194 191 188 187 187 187 186 182 179 177 175 174 172
152 165 168 171 182 185 190 207 243 256 232 188 167 164 144 126 122 157 212 226 182 171 189 195 201 206 196 184 181 187 206 217 225 235 205 189 200 207 211 221 216 205 210 211 205 198 188 182 181 184 193 197 193 189 188 186 184 188 191 190 193 201 205 205 202 200 199 198 198 198 199 198 198 197 195 195 194 191 189 187 183 179 176 175 174 173
146 156 163 180 181 182 195 201 248 274 225 167 158 169 152 142 170 201 209 179 135 171 195 199 201 199 183 180 188 203 216 218 216 116 117 164 191 196 184 179 174 174 184 188 190 191 185 181 183 187 191 193 190 190 188 185 186 190 191 194 202 207 206 203 201 200 198 197 198 199 200 200 201 200 199 198 197 192 187 184 182 180 178 176 175 173
171 167 177 187 168 136 174 178 214 265 210 139 130 168 190 184 195 182 119 50 147 176 176 190 201 188 174 184 200 212 218 211 194 209 211 198 184 145 147 160 159 161 159 156 175 186 181 175 179 183 185 187 189 191 189 187 189 190 193 201 208 207 204 202 202 200 198 198 199 200 202 202 201 201 200 198 196 192 186 182 181 181 180 178 175 173
177 172 179 193 174 160 186 193 203 244 160 137 143 175 202 202 199 161 143 161 228 206 175 182 200 191 180 189 202 212 215 203 199 216 219 211 188 141 140 159 159 164 167 164 176 183 178 174 175 178 182 188 191 193 194 192 192 193 199 206 208 204 202 202 200 198 198 199 200 200 202 202 200 200 199 197 194 190 185 182 181 180 180 179 176 173
197 186 168 181 188 184 198 209 220 349 140 162 170 167 174 192 209 188 169 170 193 206 189 180 196 195 187 188 194 202 211 214 214 212 208 207 196 171 160 164 160 165 168 163 168 177 178 177 174 173 180 190 194 197 199 198 196 197 202 207 205 202 200 197 195 196 197 199 200 200 200 199 199 199 198 196 193 189 185 182 181 180 180 180 178 175
204 174 129 146 187 217 259 238 228 16 178 201 218 167 182 197 198 170 178 186 185 190 182 170 186 188 181 175 174 190 211 213 211 215 216 207 190 176 166 153 147 157 163 163 167 173 175 174 173 174 179 186 193 198 201 201 201 203 206 205 202 200 199 195 193 194 196 197 198 197 197 196 195 196 196 195 194 192 189 186 183 181 181 180 180 179
242 174 153 142 161 195 233 220 184 178 201 199 214 248 224 213 192 157 186 221 214 187 174 153 161 168 167 168 177 196 209 199 194 212 223 213 204 196 179 165 165 170 173 175 174 172 170 169 171 176 180 185 192 198 201 202 204 207 209 206 201 200 198 195 194 193 193 195 195 195 195 195 193 193 193 193 192 192 191 189 186 184 182 182 181 180
208 176 172 168 167 187 220 208 175 197 214 202 202 216 221 207 189 168 184 223 197 160 154 138 131 145 164 182 188 190 190 184 189 201 209 213 217 206 185 179 178 173 174 177 174 172 172 173 174 177 182 188 193 197 200 202 204 208 210 206 202 199 196 194 195 195 194 195 195 195 195 195 194 193 192 192 193 193 192 191 190 189 189 189 187 185
136 155 178 182 176 201 241 222 185 196 226 226 219 228 245 215 194 188 189 181 156 138 138 142 132 147 171 183 178 168 175 194 200 195 194 205 214 202 184 172 163 166 171 173 174 176 177 177 176 178 183 191 196 197 198 201 203 206 208 206 202 199 196 195 195 196 196 196 196 196 195 196 196 195 194 193 194 196 196 195 195 195 196 196 195 194
138 170 182 170 180 214 227 204 173 175 214 224 215 218 228 216 190 189 193 190 188 180 164 156 135 103 182 184 170 170 188 204 198 186 189 201 200 183 169 155 152 164 170 168 172 177 177 175 178 178 181 188 194 194 196 198 201 204 206 206 203 201 198 196 194 195 197 197 197 197 197 196 197 197 196 195 195 196 199 200 200 201 201 201 200 200
181 185 181 179 202 217 207 162 159 182 211 208 197 202 210 202 182 190 200 204 204 195 175 166 161 164 203 215 197 187 192 190 180 178 184 191 185 167 162 162 161 163 165 166 167 168 168 170 175 176 179 184 188 192 196 198 201 204 205 205 204 203 202 200 196 195 198 200 200 200 199 198 199 199 199 199 198 197 197 199 203 205 207 207 205 204